DW1920 Weather Reports


time (UTC)temp
F
wind
direction
speed
knots
gust
knots
rain 1hr
in
rain 24hr
in
rain mn
in
humidity
%
barometer
mb
20180718214002 79 312 3.5 7.8 0.00 0.17 0.10 52 1010.3
20180718213002 78 326 6.1 10.4 0.00 0.17 0.10 50 1010.3
20180718212001 78 293 4.3 11.3 0.00 0.17 0.10 51 1010.2
20180718211002 79 303 5.2 10.4 0.00 0.17 0.10 51 1010.2
20180718210001 79 306 7.0 10.4 0.00 0.17 0.10 49 1010.3
20180718205001 78 303 7.8 10.4 0.00 0.17 0.10 52 1010.4
20180718204002 78 307 3.5 8.7 0.00 0.18 0.10 52 1010.3
20180718203001 78 335 4.3 12.2 0.00 0.18 0.10 51 1010.3
20180718202001 79 321 7.8 12.2 0.00 0.19 0.10 53 1010.2
20180718201002 79 315 6.1 11.3 0.00 0.19 0.10 52 1010.2
20180718200001 79 314 7.0 13.0 0.00 0.19 0.10 54 1010.2
20180718195002 78 303 7.8 13.0 0.00 0.21 0.10 53 1010.3
20180718194002 78 319 4.3 10.4 0.00 0.21 0.10 57 1010.2
20180718193001 79 320 8.7 13.0 0.00 0.22 0.10 54 1010.1
20180718192002 78 293 7.8 11.3 0.00 0.22 0.10 54 1010.1
20180718191002 78 288 6.1 14.8 0.00 0.26 0.10 53 1010.1
20180718190002 78 287 7.0 11.3 0.00 0.29 0.10 54 1010.0
20180718185001 78 317 7.8 16.5 0.00 0.33 0.10 53 1010.0
20180718184002 78 309 8.7 12.2 0.00 0.55 0.10 53 1009.9
20180718183002 77 304 7.8 13.9 0.00 0.61 0.10 53 1009.8
20180718182001 77 298 7.0 15.6 0.00 0.61 0.10 56 1009.8
20180718181002 77 299 6.1 13.0 0.00 0.61 0.10 56 1009.7
20180718180002 77 313 7.8 12.2 0.00 0.61 0.10 57 1009.7
20180718175001 77 291 6.1 11.3 0.00 0.61 0.10 57 1009.6
20180718174004 76 315 7.8 14.8 0.00 0.61 0.10 59 1009.6
20180718173002 76 298 6.1 14.8 0.00 0.61 0.10 63 1009.5
20180718172002 76 311 7.8 13.9 0.00 0.61 0.10 61 1009.5
20180718171001 76 313 9.6 14.8 0.00 0.61 0.10 61 1009.6
20180718170002 75 309 8.7 13.9 0.00 0.61 0.10 61 1009.6
20180718165005 75 325 8.7 14.8 0.00 0.61 0.10 61 1009.6
20180718164005 75 321 8.7 15.6 0.00 0.61 0.10 61 1009.6
20180718163004 75 293 7.8 13.9 0.00 0.61 0.10 65 1009.6
20180718162002 74 313 7.8 14.8 0.00 0.61 0.10 63 1009.6
20180718161001 74 313 7.8 12.2 0.00 0.61 0.10 65 1009.8
20180718160002 74 302 7.8 13.0 0.00 0.61 0.10 66 1009.8
20180718155002 73 310 7.8 13.9 0.00 0.61 0.10 65 1009.8
20180718154002 73 318 7.0 13.0 0.00 0.61 0.10 68 1009.9
20180718153002 73 310 5.2 13.0 0.00 0.61 0.10 70 1009.9
20180718152001 72 307 7.0 13.0 0.00 0.61 0.10 71 1009.9
20180718151002 72 300 8.7 13.9 0.00 0.61 0.10 70 1009.9
20180718150002 71 318 9.6 16.5 0.00 0.61 0.10 70 1009.8
20180718145001 71 315 8.7 17.4 0.00 0.61 0.10 72 1009.9
20180718144002 70 304 9.6 17.4 0.00 0.61 0.10 71 1009.9
20180718143002 70 323 7.8 17.4 0.00 0.61 0.10 72 1009.8
20180718142001 70 315 10.4 19.1 0.00 0.61 0.10 72 1009.8
20180718141002 69 293 7.8 13.0 0.00 0.61 0.10 77 1009.8
20180718140002 69 303 7.8 19.1 0.00 0.61 0.10 78 1009.8
20180718135001 69 307 9.6 16.5 0.00 0.61 0.10 78 1009.7
20180718134002 68 295 9.6 14.8 0.00 0.61 0.10 81 1009.8
20180718133001 68 306 9.6 18.2 0.00 0.61 0.10 83 1009.8
20180718132001 68 298 7.8 15.6 0.00 0.61 0.10 85 1009.9
20180718131002 67 305 7.8 12.2 0.00 0.61 0.10 87 1009.8
20180718130002 67 298 9.6 13.9 0.00 0.61 0.10 88 1009.7
20180718125005 67 296 8.7 14.8 0.00 0.61 0.10 89 1009.5
20180718124001 66 298 7.0 12.2 0.00 0.61 0.10 91 1009.4
20180718123002 66 299 7.0 13.0 0.00 0.61 0.10 92 1009.3
20180718122002 66 293 7.0 13.0 0.00 0.61 0.10 93 1009.4
20180718121001 66 300 5.2 12.2 0.00 0.61 0.10 93 1009.5
20180718120002 66 305 7.0 11.3 0.00 0.61 0.10 94 1009.6
20180718115002 66 298 7.0 12.2 0.00 0.61 0.10 94 1009.5
20180718114002 65 295 7.0 11.3 0.00 0.61 0.10 95 1009.4
20180718113002 65 307 7.0 13.0 0.00 0.61 0.10 96 1009.2
20180718112002 65 301 5.2 10.4 0.00 0.61 0.10 96 1009.1
20180718111001 65 309 6.1 12.2 0.00 0.61 0.10 96 1008.9
20180718110002 65 309 7.0 13.0 0.00 0.61 0.10 97 1008.8
20180718105002 65 302 7.8 12.2 0.00 0.61 0.10 97 1008.7
20180718104001 64 285 7.0 11.3 0.00 0.61 0.10 97 1008.8
20180718103002 64 290 6.1 9.6 0.00 0.61 0.10 97 1008.7
20180718102002 64 291 4.3 7.0 0.00 0.61 0.10 98 1008.6
20180718101002 64 281 3.5 7.0 0.00 0.61 0.10 98 1008.6
20180718100002 63 271 6.1 7.8 0.00 0.61 0.10 98 1008.6
20180718095001 63 273 7.0 7.8 0.00 0.61 0.10 97 1008.0
20180718094002 63 268 5.2 6.1 0.00 0.61 0.10 97 1007.9
20180718093002 63 280 3.5 7.0 0.00 0.61 0.10 98 1007.9
20180718092001 63 270 3.5 7.0 0.00 0.61 0.10 97 1007.6
20180718091002 63 280 4.3 6.1 0.00 0.61 0.10 97 1007.4
20180718090002 63 275 4.3 7.0 0.00 0.61 0.10 97 1007.5
20180718085001 62 267 4.3 7.0 0.00 0.61 0.10 97 1007.6
20180718084001 63 275 4.3 6.1 0.00 0.61 0.10 97 1007.2
20180718083002 62 265 2.6 6.1 0.00 0.61 0.10 97 1007.5
20180718082003 62 261 5.2 7.8 0.00 0.61 0.10 97 1007.5
20180718081001 63 257 3.5 8.7 0.00 0.61 0.10 97 1007.7
20180718080002 63 255 5.2 7.8 0.00 0.61 0.10 97 1008.0
20180718075001 63 257 2.6 7.8 0.00 0.61 0.10 97 1007.7
20180718074002 63 259 5.2 7.8 0.00 0.61 0.10 97 1007.6
20180718073002 63 258 5.2 8.7 0.00 0.61 0.10 97 1007.6
20180718072001 63 263 6.1 8.7 0.00 0.61 0.10 97 1007.6
20180718071002 63 263 2.6 7.8 0.00 0.61 0.10 96 1007.4
20180718070002 63 256 4.3 7.8 0.00 0.61 0.10 96 1007.5
20180718065001 64 257 5.2 7.8 0.00 0.61 0.10 97 1007.3
20180718064002 64 269 3.5 5.2 0.00 0.61 0.10 97 1007.1
20180718063002 65 265 3.5 7.0 0.00 0.61 0.10 97 1006.9
20180718062002 65 289 5.2 7.0 0.00 0.61 0.10 97 1006.5
20180718061002 65 290 3.5 4.3 0.00 0.61 0.10 97 1006.5
20180718060002 65 90 1.7 1.7 0.01 0.61 0.10 97 1006.5
20180718055001 65 134 0.9 3.5 0.01 0.61 0.10 97 1006.8
20180718054002 65 126 2.6 4.3 0.01 0.61 0.10 96 1006.5
20180718053002 66 293 2.6 4.3 0.01 0.61 0.10 97 1006.8
20180718052001 66 289 1.7 7.0 0.01 0.61 0.10 97 1006.8
20180718051002 65 273 3.5 5.2 0.01 0.61 0.10 97 1007.3
20180718050002 66 220 3.5 6.1 0.00 0.60 0.09 96 1007.4
20180718045003 66 257 3.5 6.1 0.05 0.56 0.05 96 1007.3
20180718044002 67 271 2.6 6.1 0.03 0.54 0.03 97 1007.3
20180718043002 67 291 3.5 7.8 0.01 0.52 0.01 97 1007.1
20180718042002 67 310 4.3 7.8 0.00 0.51 0.00 97 1006.8
20180718041002 68 303 5.2 12.2 0.00 0.51 0.00 97 1006.8
20180718040002 68 292 7.0 13.0 0.00 0.51 0.51 97 1006.6
20180718035002 68 297 9.6 13.0 0.00 0.51 0.51 98 1006.4
20180718034001 68 286 7.0 13.0 0.00 0.51 0.51 98 1006.3
20180718033002 68 282 9.6 17.4 0.00 0.51 0.51 98 1006.3
20180718032002 68 277 10.4 16.5 0.00 0.51 0.51 98 1006.4
20180718031003 68 277 10.4 15.6 0.00 0.51 0.51 98 1006.6
20180718030004 67 273 7.8 13.0 0.01 0.51 0.51 98 1006.7
20180718025004 67 273 9.6 13.9 0.01 0.51 0.51 98 1006.9
20180718024003 66 273 10.4 13.0 0.01 0.51 0.51 98 1007.0
20180718023003 66 268 9.6 13.0 0.01 0.51 0.51 98 1007.3
20180718022006 65 276 9.6 12.2 0.01 0.51 0.51 98 1007.5
20180718021005 64 280 8.7 13.0 0.01 0.51 0.51 98 1007.4
20180718020004 64 220 5.2 7.8 0.00 0.50 0.50 98 1007.3
20180718015002 63 259 2.6 10.4 0.00 0.50 0.50 98 1007.5
20180718014004 63 186 9.6 11.3 0.00 0.50 0.50 98 1007.8
20180718013002 64 207 7.8 8.7 0.00 0.50 0.50 98 1007.9
20180718012002 64 188 7.8 10.4 0.00 0.50 0.50 98 1007.7
20180718011001 64 205 8.7 10.4 0.00 0.50 0.50 98 1007.8
20180718010002 64 242 2.6 6.1 0.05 0.50 0.50 98 1007.4
20180718005002 64 241 2.6 7.8 0.04 0.49 0.49 98 1007.5
20180718004002 64 220 6.1 10.4 0.03 0.48 0.48 97 1007.9
20180718003001 64 227 5.2 7.8 0.01 0.46 0.46 98 1008.0
20180718002002 64 242 3.5 7.8 0.01 0.46 0.46 98 1008.0
20180718001002 64 232 3.5 7.0 0.00 0.45 0.45 97 1007.8
20180718000002 64 237 3.5 7.8 0.01 0.45 0.45 98 1007.8
20180717235002 64 227 8.7 9.6 0.00 0.44 0.44 97 1008.1
20180717234002 65 253 3.5 8.7 0.00 0.44 0.44 98 1007.7
20180717233002 66 246 2.6 8.7 0.00 0.44 0.44 97 1007.3
20180717232001 67 252 5.2 9.6 0.00 0.44 0.44 98 1007.2
20180717231002 67 277 8.7 13.9 0.00 0.44 0.44 98 1007.1
20180717230002 65 275 8.7 12.2 0.00 0.44 0.44 98 1007.1
20180717225002 65 265 7.8 13.9 0.00 0.44 0.44 98 1007.4
20180717224002 65 262 8.7 13.0 0.00 0.44 0.44 98 1007.8
20180717223002 65 264 7.8 12.2 0.00 0.44 0.44 98 1007.7
20180717222002 65 254 4.3 12.2 0.00 0.44 0.44 98 1007.4
20180717221001 65 259 7.0 10.4 0.00 0.44 0.44 98 1007.3
20180717220002 64 251 4.3 8.7 0.00 0.44 0.44 97 1007.1
20180717215002 64 257 4.3 9.6 0.00 0.44 0.44 97 1007.1